Date String (YYYY-MM-DD hh:mm:ss) UTC,Instrument flags,Ambient pressure (hPa),Sample flow (lpm),Bypass flow (lpm),Sample temperature (°C),Ambient temperature (°C),ASC tube jacket temperature (°C),LED temperature (°C),Box temperature (°C),Sample RH (%),Span deviation,Mass concentration (μg/m³),Mass concentration (μg/m³),Mass concentration (μg/m³)
DateTimeUTC,F1_M11,P_M11,Q1_M11,Q2_M11,T1_M11,T2_M11,T3_M11,T4_M11,T5_M11,U1_M11,ZSPAN_M11,X0_M11,X2_M11,X1_M11
2022-07-09 16:00:00,,0833.6,4.99,0.00,29.5,28.2,00.0,38.3,31.4,25.2,0000.0,0012.03,0004.38,0003.56
2022-07-09 16:01:00,,0833.5,5.00,0.00,29.6,28.3,00.0,38.3,31.5,23.6,0000.0,0011.93,0004.26,0003.52
2022-07-09 16:02:00,,0833.5,5.00,0.00,29.6,28.0,00.0,38.2,31.5,24.5,0000.0,0011.46,0004.20,0003.47
2022-07-09 16:03:00,,0833.5,4.99,0.00,29.5,27.4,00.0,38.2,31.4,24.8,0000.0,0010.93,0004.13,0003.44
2022-07-09 16:04:00,,0833.5,5.01,0.00,29.5,27.3,00.0,38.2,31.3,24.4,0000.0,0009.99,0004.03,0003.40
2022-07-09 16:05:00,,0833.5,5.00,0.00,29.5,27.4,00.0,38.2,31.2,25.4,0000.0,0009.16,0004.00,0003.38
2022-07-09 16:06:00,,0833.5,5.00,0.00,29.4,27.5,00.0,38.2,31.2,25.6,0000.0,0008.90,0003.96,0003.37
2022-07-09 16:07:00,,0833.6,5.01,0.00,29.4,27.7,00.0,38.2,31.2,25.9,0000.0,0008.86,0003.94,0003.36
2022-07-09 16:08:00,,0833.6,4.99,0.00,29.5,27.8,00.0,38.2,31.3,26.5,0000.0,0009.78,0003.95,0003.36
2022-07-09 16:09:00,,0833.6,4.99,0.00,29.5,28.0,00.0,38.2,31.3,25.4,0000.0,0009.81,0003.93,0003.36
2022-07-09 16:10:00,,0833.5,5.01,0.00,29.5,28.2,00.0,38.2,31.4,25.2,0000.0,0009.83,0003.91,0003.35
2022-07-09 16:11:00,,0833.6,5.00,0.00,29.5,28.3,00.0,38.2,31.4,24.3,0000.0,0009.89,0003.91,0003.34
2022-07-09 16:12:00,,0833.6,5.00,0.00,29.5,28.1,00.0,38.2,31.4,24.6,0000.0,0009.83,0003.93,0003.33
2022-07-09 16:13:00,,0833.5,5.00,0.00,29.5,27.5,00.0,38.2,31.3,23.5,0000.0,0010.31,0003.91,0003.33
2022-07-09 16:14:00,,0833.5,5.00,0.00,29.5,27.3,00.0,38.1,31.3,23.7,0000.0,0011.12,0003.92,0003.32
2022-07-09 16:15:00,,0833.6,5.00,0.00,29.4,27.4,00.0,38.1,31.2,24.6,0000.0,0011.16,0003.94,0003.32
2022-07-09 16:16:00,,0833.5,4.99,0.00,29.4,27.5,00.0,38.2,31.2,26.0,0000.0,0011.17,0003.98,0003.34
2022-07-09 16:17:00,,0833.5,5.01,0.00,29.4,27.7,00.0,38.2,31.2,25.8,0000.0,0011.11,0003.97,0003.34
2022-07-09 16:18:00,,0833.5,5.00,0.00,29.4,27.8,00.0,38.2,31.3,25.2,0000.0,0010.59,0003.94,0003.34
2022-07-09 16:19:00,,0833.5,5.01,0.00,29.5,28.0,00.0,38.2,31.3,26.6,0000.0,0009.28,0003.90,0003.35
2022-07-09 16:20:00,,0833.5,4.99,0.00,29.5,28.2,00.0,38.2,31.4,27.9,0000.0,0009.46,0003.93,0003.37
2022-07-09 16:21:00,,0833.6,5.00,0.00,29.5,28.2,00.0,38.2,31.4,27.4,0000.0,0010.02,0003.97,0003.39
2022-07-09 16:22:00,,0833.6,5.00,0.00,29.5,27.8,00.0,38.2,31.4,25.9,0000.0,0010.18,0003.99,0003.41
2022-07-09 16:23:00,,0833.5,5.00,0.00,29.5,27.3,00.0,38.1,31.3,27.3,0000.0,0010.54,0004.01,0003.44
2022-07-09 16:24:00,,0833.5,5.00,0.00,29.4,27.3,00.0,38.1,31.2,27.8,0000.0,0009.91,0004.09,0003.48
2022-07-09 16:25:00,,0833.5,5.01,0.00,29.4,27.4,00.0,38.1,31.2,25.7,0000.0,0009.19,0004.13,0003.50
2022-07-09 16:26:00,,0833.5,5.00,0.00,29.4,27.5,00.0,38.1,31.2,26.9,0000.0,0009.15,0004.12,0003.50
2022-07-09 16:27:00,,0833.6,5.00,0.00,29.4,27.7,00.0,38.2,31.2,27.2,0000.0,0009.11,0004.10,0003.50
2022-07-09 16:28:00,,0833.6,5.00,0.00,29.4,27.9,00.0,38.2,31.3,26.4,0000.0,0008.96,0004.08,0003.51
2022-07-09 16:29:00,,0833.5,4.99,0.00,29.4,28.1,00.0,38.2,31.3,25.0,0000.0,0009.05,0004.11,0003.53
2022-07-09 16:30:00,,0833.5,4.99,0.00,29.5,28.2,00.0,38.2,31.4,25.7,0000.0,0009.10,0004.14,0003.54
2022-07-09 16:31:00,,0833.6,5.01,0.00,29.5,27.8,00.0,38.1,31.4,24.2,0000.0,0008.97,0004.15,0003.53
2022-07-09 16:32:00,,0833.5,5.00,0.00,29.4,27.3,00.0,38.1,31.3,25.0,0000.0,0008.58,0004.16,0003.52
2022-07-09 16:33:00,,0833.5,5.01,0.00,29.4,27.2,00.0,38.1,31.2,27.1,0000.0,0009.20,0004.15,0003.53
2022-07-09 16:34:00,,0833.5,5.01,0.00,29.4,27.3,00.0,38.1,31.1,26.4,0000.0,0008.77,0004.15,0003.54
2022-07-09 16:35:00,,0833.6,5.00,0.00,29.3,27.5,00.0,38.1,31.1,26.0,0000.0,0009.04,0004.14,0003.53
2022-07-09 16:36:00,,0833.6,5.00,0.00,29.3,27.7,00.0,38.1,31.2,23.7,0000.0,0009.17,0004.13,0003.53
2022-07-09 16:37:00,,0833.5,5.01,0.00,29.4,27.9,00.0,38.1,31.3,23.2,0000.0,0009.22,0004.14,0003.52
2022-07-09 16:38:00,,0833.6,4.99,0.00,29.4,28.0,00.0,38.1,31.3,23.9,0000.0,0009.26,0004.13,0003.51
2022-07-09 16:39:00,,0833.6,4.99,0.00,29.4,28.2,00.0,38.2,31.4,25.0,0000.0,0010.18,0004.17,0003.52
2022-07-09 16:40:00,,0833.5,5.00,0.00,29.5,28.1,00.0,38.1,31.4,23.7,0000.0,0010.27,0004.16,0003.51
2022-07-09 16:41:00,,0833.6,5.00,0.00,29.4,27.6,00.0,38.1,31.3,23.1,0000.0,0010.17,0004.11,0003.48
2022-07-09 16:42:00,,0833.6,5.01,0.00,29.4,27.2,00.0,38.0,31.2,22.0,0000.0,0010.47,0004.04,0003.46
2022-07-09 16:43:00,,0833.6,4.99,0.00,29.4,27.3,00.0,38.1,31.2,23.2,0000.0,0011.14,0003.99,0003.44
2022-07-09 16:44:00,,0833.6,5.00,0.00,29.3,27.4,00.0,38.1,31.1,23.3,0000.0,0010.66,0003.96,0003.42
2022-07-09 16:45:00,,0833.6,4.99,0.00,29.3,27.6,00.0,38.1,31.1,25.0,0000.0,0010.98,0003.94,0003.40
2022-07-09 16:46:00,,0833.5,5.01,0.00,29.4,27.8,00.0,38.1,31.2,26.2,0000.0,0011.06,0003.96,0003.40
2022-07-09 16:47:00,,0833.5,4.99,0.00,29.4,27.9,00.0,38.1,31.3,27.2,0000.0,0011.12,0003.95,0003.41
2022-07-09 16:48:00,,0833.5,4.99,0.00,29.4,28.1,00.0,38.1,31.3,25.4,0000.0,0011.24,0003.96,0003.43
2022-07-09 16:49:00,,0833.6,4.99,0.00,29.4,28.1,00.0,38.1,31.4,26.3,0000.0,0011.94,0004.01,0003.45
2022-07-09 16:50:00,,0833.5,5.00,0.00,29.4,27.6,00.0,38.1,31.3,26.8,0000.0,0011.29,0004.01,0003.46
2022-07-09 16:51:00,,0833.5,5.00,0.00,29.4,27.2,00.0,38.0,31.2,24.6,0000.0,0011.21,0004.05,0003.47
2022-07-09 16:52:00,,0833.5,4.99,0.00,29.4,27.3,00.0,38.0,31.2,22.9,0000.0,0011.20,0004.05,0003.48
2022-07-09 16:53:00,,0833.5,4.99,0.00,29.3,27.4,00.0,38.0,31.1,22.6,0000.0,0010.90,0004.06,0003.48
2022-07-09 16:54:00,,0833.4,5.00,0.00,29.3,27.6,00.0,38.1,31.1,23.3,0000.0,0010.43,0004.08,0003.48
2022-07-09 16:55:00,,0833.5,5.00,0.00,29.3,27.7,00.0,38.1,31.2,22.9,0000.0,0010.58,0004.10,0003.49
2022-07-09 16:56:00,,0833.4,4.99,0.00,29.4,27.9,00.0,38.1,31.2,23.1,0000.0,0010.52,0004.14,0003.49
2022-07-09 16:57:00,,0833.4,4.99,0.00,29.4,28.1,00.0,38.1,31.3,23.7,0000.0,0010.26,0004.12,0003.48
2022-07-09 16:58:00,,0833.5,5.01,0.00,29.4,28.1,00.0,38.1,31.3,23.3,0000.0,0010.60,0004.10,0003.46
2022-07-09 16:59:00,,0833.5,4.99,0.00,29.4,27.5,00.0,38.0,31.3,23.8,0000.0,0010.95,0004.07,0003.44
